Miscellaneous Local Product
Issued by NWS North Platte, NE

Home | Current Version | Previous Version | Text Only | Print | Product List | Glossary On
Versions: 1 2 3 4 5 6 7 8 9 10 11 12 13 14 15 16 17 18 19 20 21 22 23 24 25 26 27 28 29 30 31 32 33 34 35 36 37 38 39 40 41 42 43 44 45 46 47 48 49 50
859
AXUS43 KLBF 220610
MISLBF


WESTERN AND NORTH CENTRAL NEBRASKA HOURLY WEATHER ROUNDUP
NATIONAL WEATHER SERVICE NORTH PLATTE NE
100 AM CDT WED MAR 22 2017

NOTE: "FAIR" INDICATES FEW OR NO CLOUDS BELOW 12,000 FEET WITH NO
SIGNIFICANT WEATHER AND/OR OBSTRUCTIONS TO VISIBILITY.

NOTE: STATIONS NOT REPORTING VARIABLES SUCH AS SKY/WEATHER OR
PRESSURE ARE PROVIDED BY RAWS AND APRS NETWORKS AND ARE NOT UNDER
NATIONAL WEATHER SERVICE QUALITY CONTROL.

...OBSERVATIONS IN AND NEAR THE EASTERN PANHANDLE OF NEBRASKA...

CITY           SKY/WX    TMP DP  RH WIND       PRES   REMARKS
PINE RIDGE     LGT RAIN  35  32  88 SE12      30.20F WCI  27
CHADRON        CLOUDY    40  33  76 SE10      30.17F WCI  33
ALLIANCE       CLOUDY    36  31  82 SE21G35   30.19F WCI  25
SIDNEY         CLOUDY    37  30  75 SE22G32   30.20R WCI  26
CRESCENT LAKE    N/A     36  32  87 SE13G22     N/A  WCI  27
$$

...OBSERVATIONS IN NORTHERN NEBRASKA AND FAR SOUTHERN SOUTH DAKOTA...

CITY           SKY/WX    TMP DP  RH WIND       PRES   REMARKS
WINNER         CLOUDY    31  25  78 SE14      30.38F WCI  21
VALENTINE      CLOUDY    32  25  75 SE12      30.32F WCI  23
THEDFORD       DRIZZLE   33  29  86 E14       30.32F WCI  23
AINSWORTH      CLOUDY    32  29  89 SE13      30.35F WCI  22
O`NEILL        CLOUDY    34  28  79 E7        30.40S WCI  28
ORD            CLOUDY    36  26  67 CALM      30.38R
BROKEN BOW     CLOUDY    35  25  66 E6        30.37F WCI  30
VALENTINE NWR    N/A     31  25  79 SE12        N/A  WCI  22
HALSEY           N/A     33  24  71 SE7         N/A  WCI  27
BUTTE            N/A     31  23  72 E10         N/A  WCI  22
CHAMBERS         N/A     34  25  70 E5          N/A  WCI  30
EWING            N/A     33  27  79 E9          N/A  WCI  25
$$

...OBSERVATIONS IN SOUTHWEST NEBRASKA AND FAR NORTHEAST COLORADO...

CITY           SKY/WX    TMP DP  RH WIND       PRES   REMARKS
HOLYOKE        FAIR      37  32  81 SE22G28   30.25S WCI  27
IMPERIAL       CLOUDY    38  31  76 SE20      30.27F WCI  28
OGALLALA       CLOUDY    39  33  77 SE16G23   30.27S WCI  30
NORTH PLATTE   CLOUDY    37  25  61 E16       30.32F WCI  28
MCCOOK         CLOUDY    39  30  70 E17       30.32F WCI  30
LEXINGTON      CLOUDY    36  26  68 E6        30.38R WCI  31
STAPLETON        N/A     33  26  76 E3          N/A
GOTHENBURG       N/A     36  25  64 E8          N/A  WCI  30
CALLAWAY         N/A     32  26  79 E9          N/A  WCI  24
$$

...OBSERVATIONS IN CENTRAL LINCOLN COUNTY AREA...

CITY           SKY/WX    TMP DP  RH WIND       PRES   REMARKS
N.P. AIRPORT   CLOUDY    37  25  61 E16       30.32F WCI  28
N.P. DOWNTOWN    N/A     35  26  69 E10G20      N/A  WCI  27
N.P. SOUTHEAST   N/A     35  26  69 E9          N/A  WCI  28
N.P. HILLCREST   N/A     35  26  69 E20G26      N/A  WCI  24
$$

...SOME OBSERVATIONS FROM AROUND THE REGION...

CITY           SKY/WX    TMP DP  RH WIND       PRES   REMARKS
DENVER         PTCLDY    47  35  63 S22G30    30.08F
LIMON          CLEAR     39  31  72 S15       30.19F WCI  31
ASPEN          PTCLDY    45  30  55 SW8       30.17F
LARAMIE        MOCLDY    38  33  82 SE23      30.07F WCI  27
GILLETTE       MOCLDY    35  33  92 S25G37    29.97F WCI  23
CHEYENNE       CLEAR     39  29  67 S14       30.13S WCI  31
SCOTTSBLUFF    MOCLDY    37  31  78 SE23G29   30.16F WCI  26
GRAND ISLAND   MOCLDY    35  27  72 E9        30.38F WCI  28
OMAHA          CLOUDY    38  24  57 NE10      30.43S WCI  31
SIOUX FALLS    PTCLDY    25  20  81 NE8       30.47F WCI  16
PIERRE         CLOUDY    30  18  60 E15       30.36F WCI  19
RAPID CITY     CLOUDY    29  27  92 SE16      30.18F WCI  17
BISMARCK       CLOUDY    25  17  72 SE13      30.39F WCI  14
KANSAS CITY    CLOUDY    43  30  60 NE13      30.34S
HILL CITY      MOCLDY    40  32  73 E13       30.34F WCI  32
WICHITA        CLOUDY    53  27  36 NE15      30.24S
DODGE CITY     CLOUDY    50  26  39 NE16      30.24R
OKLAHOMA CITY  PTCLDY    56  41  57 NE18      30.11R
DALLAS         PTCLDY    71  58  63 S12       30.01S
AMARILLO       CLOUDY    52  42  69 NE15      30.17R
$$




USA.gov is the U.S. government's official web portal to all federal, state and local government web resources and services.